Location: Dixon
(37.9953°N, 92.0959°W)
Time: 16:19:52
(UTC+00:00)

ISS - Visible Passes

Search period start: 07 December 2025 00:00
Search period end: 17 December 2025 00:00
Orbit: 416 x 421 km, 51.6° (Epoch: 06 December)

Date Brightness Start Highest point End Pass type
(mag) Time Alt. Az. Time Alt. Az. Time Alt. Az.
11 Dec -1.4 12:21:51 10° SSW 12:24:46 27° SE 12:27:41 10° ENE visible
12 Dec -0.6 11:34:55 10° SSE 11:37:00 16° SE 11:39:05 10° E visible
13 Dec -3.8 12:22:08 10° SW 12:25:30 89° NW 12:28:52 10° NE visible
14 Dec -2.9 11:35:36 21° SSW 11:37:34 48° SE 11:40:50 10° ENE visible
15 Dec -1.2 10:50:50 21° E 10:50:50 21° E 10:52:32 10° ENE visible
15 Dec -2.9 12:23:50 13° W 12:26:21 31° NNW 12:29:25 10° NNE visible
16 Dec -3.4 11:38:38 48° N 11:38:38 48° N 11:41:33 10° NE visible
